Location: Unspecified
(54.1780°N, 0.0000°E)
Time: 20:05:23
(UTC+00:00)

Transit 2A - Pass Details

Date: 18 June 2019
Orbit: 597 x 962 km, 66.7° (Epoch: 21 August)

Event Time Altitude Azimuth Distance (km) Brightness Sun altitude
Rises 11:23:54 0° 311° (NW) 3,461 9.1 58.4°
Reaches altitude 10° 11:27:44 10° 287° (WNW) 2,436 8.6 58.6°
Maximum altitude 11:30:23 14° 258° (WSW) 2,123 8.5 58.7°
Drops below altitude 10° 11:32:56 10° 229° (SW) 2,307 8.8 58.8°
Sets 11:36:23 0° 204° (SSW) 3,140 9.5 58.9°
